Year,Month,Day,Hour,Minute,Value (Times are PST for temperature in C)
2008,06,30,00,00,20.30
2008,06,30,00,01,20.20
2008,06,30,00,02,20.20
2008,06,30,00,03,20.20
2008,06,30,00,04,20.20
2008,06,30,00,05,20.20
2008,06,30,00,06,20.20
2008,06,30,00,07,20.20
2008,06,30,00,08,20.20
2008,06,30,00,09,20.20
2008,06,30,00,10,20.20
2008,06,30,00,11,20.20
2008,06,30,00,12,20.20
2008,06,30,00,13,20.20
2008,06,30,00,14,20.20
2008,06,30,00,15,20.20
2008,06,30,00,16,20.20
2008,06,30,00,17,20.20
2008,06,30,00,18,20.30
2008,06,30,00,19,20.30
2008,06,30,00,20,20.30
2008,06,30,00,21,20.30
2008,06,30,00,22,20.30
2008,06,30,00,23,20.30
2008,06,30,00,24,20.30
2008,06,30,00,25,20.30
2008,06,30,00,26,20.30
2008,06,30,00,27,20.30
2008,06,30,00,28,20.30
2008,06,30,00,29,20.30
2008,06,30,00,30,20.30
2008,06,30,00,31,20.30
2008,06,30,00,32,20.30
2008,06,30,00,33,20.30
2008,06,30,00,34,20.30
2008,06,30,00,35,20.30
2008,06,30,00,36,20.30
2008,06,30,00,37,20.30
2008,06,30,00,38,20.20
2008,06,30,00,39,20.20
2008,06,30,00,40,20.20
2008,06,30,00,41,20.20
2008,06,30,00,42,20.10
2008,06,30,00,43,20.10
2008,06,30,00,44,20.10
2008,06,30,00,45,20.10
2008,06,30,00,46,20.00
2008,06,30,00,47,20.00
2008,06,30,00,48,20.00
2008,06,30,00,49,20.00
2008,06,30,00,50,20.00
2008,06,30,00,51,19.90
2008,06,30,00,52,19.90
2008,06,30,00,53,19.90
2008,06,30,00,54,19.90
2008,06,30,00,55,19.90
2008,06,30,00,56,19.80
2008,06,30,00,57,19.80
2008,06,30,00,58,19.80
2008,06,30,00,59,19.70
2008,06,30,01,00,19.70
2008,06,30,01,01,19.70
2008,06,30,01,02,19.70
2008,06,30,01,03,19.60
2008,06,30,01,04,19.60
2008,06,30,01,05,19.60
2008,06,30,01,06,19.60
2008,06,30,01,07,19.60
2008,06,30,01,08,19.60
2008,06,30,01,09,19.60
2008,06,30,01,10,19.60
2008,06,30,01,11,19.60
2008,06,30,01,12,19.60
2008,06,30,01,13,19.60
2008,06,30,01,14,19.60
2008,06,30,01,15,19.60
2008,06,30,01,16,19.70
2008,06,30,01,17,19.60
2008,06,30,01,18,19.60
2008,06,30,01,19,19.60
2008,06,30,01,20,19.60
2008,06,30,01,21,19.60
2008,06,30,01,22,19.50
2008,06,30,01,23,19.50
2008,06,30,01,24,19.40
2008,06,30,01,25,19.40
2008,06,30,01,26,19.40
2008,06,30,01,27,19.40
2008,06,30,01,28,19.40
2008,06,30,01,29,19.40
2008,06,30,01,30,19.40
2008,06,30,01,31,19.40
2008,06,30,01,32,19.40
2008,06,30,01,33,19.40
2008,06,30,01,34,19.50
2008,06,30,01,35,19.50
2008,06,30,01,36,19.50
2008,06,30,01,37,19.50
2008,06,30,01,38,19.40
2008,06,30,01,39,19.40
2008,06,30,01,40,19.40
2008,06,30,01,41,19.40
2008,06,30,01,42,19.30
2008,06,30,01,43,19.30
2008,06,30,01,44,19.30
2008,06,30,01,45,19.30
2008,06,30,01,46,19.30
2008,06,30,01,47,19.20
2008,06,30,01,48,19.20
2008,06,30,01,49,19.20
2008,06,30,01,50,19.20
2008,06,30,01,51,19.10
2008,06,30,01,52,19.10
2008,06,30,01,53,19.10
2008,06,30,01,54,19.10
2008,06,30,01,55,19.20
2008,06,30,01,56,19.20
2008,06,30,01,57,19.20
2008,06,30,01,58,19.30
2008,06,30,01,59,19.30
2008,06,30,02,00,19.40
2008,06,30,02,01,19.40
2008,06,30,02,02,19.50
2008,06,30,02,03,19.60
2008,06,30,02,04,19.70
2008,06,30,02,05,19.70
2008,06,30,02,06,19.80
2008,06,30,02,07,19.80
2008,06,30,02,08,19.90
2008,06,30,02,09,19.90
2008,06,30,02,10,19.90
2008,06,30,02,11,19.90
2008,06,30,02,12,19.90
2008,06,30,02,13,19.90
2008,06,30,02,14,20.00
2008,06,30,02,15,20.00
2008,06,30,02,16,20.00
2008,06,30,02,17,20.00
2008,06,30,02,18,20.00
2008,06,30,02,19,20.00
2008,06,30,02,20,20.00
2008,06,30,02,21,20.00
2008,06,30,02,22,20.00
2008,06,30,02,23,20.00
2008,06,30,02,24,20.00
2008,06,30,02,25,20.00
2008,06,30,02,26,20.00
2008,06,30,02,27,20.00
2008,06,30,02,28,20.00
2008,06,30,02,29,19.90
2008,06,30,02,30,19.90
2008,06,30,02,31,19.90
2008,06,30,02,32,19.90
2008,06,30,02,33,19.80
2008,06,30,02,34,19.80
2008,06,30,02,35,19.80
2008,06,30,02,36,19.90
2008,06,30,02,37,19.90
2008,06,30,02,38,20.00
2008,06,30,02,39,20.00
2008,06,30,02,40,20.00
2008,06,30,02,41,20.00
2008,06,30,02,42,20.00
2008,06,30,02,43,20.00
2008,06,30,02,44,20.00
2008,06,30,02,45,19.90
2008,06,30,02,46,19.90
2008,06,30,02,47,19.90
2008,06,30,02,48,19.90
2008,06,30,02,49,19.90
2008,06,30,02,50,19.90
2008,06,30,02,51,19.90
2008,06,30,02,52,19.90
2008,06,30,02,53,19.90
2008,06,30,02,54,19.90
2008,06,30,02,55,19.90
2008,06,30,02,56,19.80
2008,06,30,02,57,19.80
2008,06,30,02,58,19.80
2008,06,30,02,59,19.80
2008,06,30,03,00,19.70
2008,06,30,03,01,19.70
2008,06,30,03,02,19.70
2008,06,30,03,03,19.70
2008,06,30,03,04,19.70
2008,06,30,03,05,19.70
2008,06,30,03,06,19.70
2008,06,30,03,07,19.70
2008,06,30,03,08,19.70
2008,06,30,03,09,19.70
2008,06,30,03,10,19.70
2008,06,30,03,11,19.70
2008,06,30,03,12,19.70
2008,06,30,03,13,19.70
2008,06,30,03,14,19.70
2008,06,30,03,15,19.70
2008,06,30,03,16,19.70
2008,06,30,03,17,19.70
2008,06,30,03,18,19.70
2008,06,30,03,19,19.70
2008,06,30,03,20,19.80
2008,06,30,03,21,19.80
2008,06,30,03,22,19.80
2008,06,30,03,23,19.80
2008,06,30,03,24,19.90
2008,06,30,03,25,19.90
2008,06,30,03,26,19.90
2008,06,30,03,27,19.90
2008,06,30,03,28,19.90
2008,06,30,03,29,19.90
2008,06,30,03,30,19.90
2008,06,30,03,31,19.90
2008,06,30,03,32,19.90
2008,06,30,03,33,19.90
2008,06,30,03,34,19.90
2008,06,30,03,35,19.80
2008,06,30,03,36,19.80
2008,06,30,03,37,19.80
2008,06,30,03,38,19.80
2008,06,30,03,39,19.80
2008,06,30,03,40,19.70
2008,06,30,03,41,19.70
2008,06,30,03,42,19.70
2008,06,30,03,43,19.70
2008,06,30,03,44,19.70
2008,06,30,03,45,19.70
2008,06,30,03,46,19.70
2008,06,30,03,47,19.70
2008,06,30,03,48,19.60
2008,06,30,03,49,19.60
2008,06,30,03,50,19.60
2008,06,30,03,51,19.60
2008,06,30,03,52,19.50
2008,06,30,03,53,19.50
2008,06,30,03,54,19.40
2008,06,30,03,55,19.40
2008,06,30,03,56,19.40
2008,06,30,03,57,19.40
2008,06,30,03,58,19.40
2008,06,30,03,59,19.40
2008,06,30,04,00,19.40
2008,06,30,04,01,19.40
2008,06,30,04,02,19.40
2008,06,30,04,03,19.40
2008,06,30,04,04,19.40
2008,06,30,04,05,19.40
2008,06,30,04,06,19.40
2008,06,30,04,07,19.40
2008,06,30,04,08,19.50
2008,06,30,04,09,19.50
2008,06,30,04,10,19.50
2008,06,30,04,11,19.50
2008,06,30,04,12,19.50
2008,06,30,04,13,19.50
2008,06,30,04,14,19.50
2008,06,30,04,15,19.50
2008,06,30,04,16,19.50
2008,06,30,04,17,19.60
2008,06,30,04,18,19.60
2008,06,30,04,19,19.50
2008,06,30,04,20,19.50
2008,06,30,04,21,19.50
2008,06,30,04,22,19.50
2008,06,30,04,23,19.50
2008,06,30,04,24,19.40
2008,06,30,04,25,19.40
2008,06,30,04,26,19.40
2008,06,30,04,27,19.50
2008,06,30,04,28,19.50
2008,06,30,04,29,19.50
2008,06,30,04,30,19.60
2008,06,30,04,31,19.70
2008,06,30,04,32,19.70
2008,06,30,04,33,19.70
2008,06,30,04,34,19.70
2008,06,30,04,35,19.70
2008,06,30,04,36,19.70
2008,06,30,04,37,19.70
2008,06,30,04,38,19.60
2008,06,30,04,39,19.60
2008,06,30,04,40,19.60
2008,06,30,04,41,19.50
2008,06,30,04,42,19.50
2008,06,30,04,43,19.50
2008,06,30,04,44,19.40
2008,06,30,04,45,19.40
2008,06,30,04,46,19.40
2008,06,30,04,47,19.30
2008,06,30,04,48,19.20
2008,06,30,04,49,19.20
2008,06,30,04,50,19.10
2008,06,30,04,51,19.10
2008,06,30,04,52,19.00
2008,06,30,04,53,19.00
2008,06,30,04,54,18.90
2008,06,30,04,55,18.80
2008,06,30,04,56,18.80
2008,06,30,04,57,18.80
2008,06,30,04,58,18.70
2008,06,30,04,59,18.70
2008,06,30,05,00,18.70
2008,06,30,05,01,18.70
2008,06,30,05,02,18.70
2008,06,30,05,03,18.60
2008,06,30,05,04,18.60
2008,06,30,05,05,18.60
2008,06,30,05,06,18.60
2008,06,30,05,07,18.50
2008,06,30,05,08,18.40
2008,06,30,05,09,18.40
2008,06,30,05,10,18.40
2008,06,30,05,11,18.30
2008,06,30,05,12,18.30
2008,06,30,05,13,18.30
2008,06,30,05,14,18.30
2008,06,30,05,15,18.30
2008,06,30,05,16,18.30
2008,06,30,05,17,18.30
2008,06,30,05,18,18.30
2008,06,30,05,19,18.30
2008,06,30,05,20,18.30
2008,06,30,05,21,18.30
2008,06,30,05,22,18.30
2008,06,30,05,23,18.30
2008,06,30,05,24,18.30
2008,06,30,05,25,18.30
2008,06,30,05,26,18.30
2008,06,30,05,27,18.30
2008,06,30,05,28,18.20
2008,06,30,05,29,18.10
2008,06,30,05,30,18.10
2008,06,30,05,31,18.00
2008,06,30,05,32,18.00
2008,06,30,05,33,17.90
2008,06,30,05,34,17.90
2008,06,30,05,35,17.90
2008,06,30,05,36,17.90
2008,06,30,05,37,17.90
2008,06,30,05,38,17.80
2008,06,30,05,39,17.80
2008,06,30,05,40,17.80
2008,06,30,05,41,17.80
2008,06,30,05,42,17.80
2008,06,30,05,43,17.80
2008,06,30,05,44,17.80
2008,06,30,05,45,17.70
2008,06,30,05,46,17.70
2008,06,30,05,47,17.70
2008,06,30,05,48,17.70
2008,06,30,05,49,17.70
2008,06,30,05,50,17.70
2008,06,30,05,51,17.80
2008,06,30,05,52,17.80
2008,06,30,05,53,17.80
2008,06,30,05,54,17.80
2008,06,30,05,55,17.80
2008,06,30,05,56,17.80
2008,06,30,05,57,17.80
2008,06,30,05,58,17.80
2008,06,30,05,59,17.80
2008,06,30,06,00,17.80
2008,06,30,06,01,17.80
2008,06,30,06,02,17.80
2008,06,30,06,03,17.80
2008,06,30,06,04,17.80
2008,06,30,06,05,17.80
2008,06,30,06,06,17.80
2008,06,30,06,07,17.80
2008,06,30,06,08,17.80
2008,06,30,06,09,17.80
2008,06,30,06,10,17.80
2008,06,30,06,11,17.80
2008,06,30,06,12,17.80
2008,06,30,06,13,17.80
2008,06,30,06,14,17.80
2008,06,30,06,15,17.80
2008,06,30,06,16,17.80
2008,06,30,06,17,17.80
2008,06,30,06,18,17.80
2008,06,30,06,19,17.80
2008,06,30,06,20,17.80
2008,06,30,06,21,17.80
2008,06,30,06,22,17.80
2008,06,30,06,23,17.80
2008,06,30,06,24,17.80
2008,06,30,06,25,17.80
2008,06,30,06,26,17.80
2008,06,30,06,27,17.80
2008,06,30,06,28,17.80
2008,06,30,06,29,17.80
2008,06,30,06,30,17.90
2008,06,30,06,31,17.90
2008,06,30,06,32,17.90
2008,06,30,06,33,17.90
2008,06,30,06,34,17.90
2008,06,30,06,35,17.90
2008,06,30,06,36,17.90
2008,06,30,06,37,17.90
2008,06,30,06,38,17.90
2008,06,30,06,39,17.90
2008,06,30,06,40,17.90
2008,06,30,06,41,17.90
2008,06,30,06,42,17.90
2008,06,30,06,43,17.90
2008,06,30,06,44,17.90
2008,06,30,06,45,18.00
2008,06,30,06,46,18.00
2008,06,30,06,47,18.00
2008,06,30,06,48,18.00
2008,06,30,06,49,18.10
2008,06,30,06,50,18.10
2008,06,30,06,51,18.10
2008,06,30,06,52,18.10
2008,06,30,06,53,18.10
2008,06,30,06,54,18.20
2008,06,30,06,55,18.20
2008,06,30,06,56,18.30
2008,06,30,06,57,18.30
2008,06,30,06,58,18.40
2008,06,30,06,59,18.40
2008,06,30,07,00,18.50
2008,06,30,07,01,18.50
2008,06,30,07,02,18.60
2008,06,30,07,03,18.60
2008,06,30,07,04,18.60
2008,06,30,07,05,18.70
2008,06,30,07,06,18.70
2008,06,30,07,07,18.70
2008,06,30,07,08,18.80
2008,06,30,07,09,18.80
2008,06,30,07,10,18.80
2008,06,30,07,11,18.80
2008,06,30,07,12,18.80
2008,06,30,07,13,18.90
2008,06,30,07,14,18.90
2008,06,30,07,15,18.90
2008,06,30,07,16,19.00
2008,06,30,07,17,19.00
2008,06,30,07,18,19.00
2008,06,30,07,19,19.00
2008,06,30,07,20,19.00
2008,06,30,07,21,19.10
2008,06,30,07,22,19.10
2008,06,30,07,23,19.10
2008,06,30,07,24,19.10
2008,06,30,07,25,19.10
2008,06,30,07,26,19.20
2008,06,30,07,27,19.20
2008,06,30,07,28,19.20
2008,06,30,07,29,19.20
2008,06,30,07,30,19.20
2008,06,30,07,31,19.20
2008,06,30,07,32,19.30
2008,06,30,07,33,19.30
2008,06,30,07,34,19.30
2008,06,30,07,35,19.30
2008,06,30,07,36,19.30
2008,06,30,07,37,19.40
2008,06,30,07,38,19.40
2008,06,30,07,39,19.40
2008,06,30,07,40,19.40
2008,06,30,07,41,19.50
2008,06,30,07,42,19.50
2008,06,30,07,43,19.60
2008,06,30,07,44,19.60
2008,06,30,07,45,19.70
2008,06,30,07,46,19.70
2008,06,30,07,47,19.70
2008,06,30,07,48,19.70
2008,06,30,07,49,19.70
2008,06,30,07,50,19.70
2008,06,30,07,51,19.80
2008,06,30,07,52,19.80
2008,06,30,07,53,19.80
2008,06,30,07,54,19.80
2008,06,30,07,55,19.80
2008,06,30,07,56,19.80
2008,06,30,07,57,19.80
2008,06,30,07,58,19.70
2008,06,30,07,59,19.70
2008,06,30,08,00,19.70
2008,06,30,08,01,19.70
2008,06,30,08,02,19.70
2008,06,30,08,03,19.70
2008,06,30,08,04,19.70
2008,06,30,08,05,19.70
2008,06,30,08,06,19.70
2008,06,30,08,07,19.70
2008,06,30,08,08,19.70
2008,06,30,08,09,19.70
2008,06,30,08,10,19.70
2008,06,30,08,11,19.70
2008,06,30,08,12,19.70
2008,06,30,08,13,19.70
2008,06,30,08,14,19.70
2008,06,30,08,15,19.80
2008,06,30,08,16,19.80
2008,06,30,08,17,19.80
2008,06,30,08,18,19.90
2008,06,30,08,19,20.00
2008,06,30,08,20,20.00
2008,06,30,08,21,20.10
2008,06,30,08,22,20.10
2008,06,30,08,23,20.20
2008,06,30,08,24,20.20
2008,06,30,08,25,20.30
2008,06,30,08,26,20.30
2008,06,30,08,27,20.30
2008,06,30,08,28,20.30
2008,06,30,08,29,20.30
2008,06,30,08,30,20.30
2008,06,30,08,31,20.30
2008,06,30,08,32,20.40
2008,06,30,08,33,20.40
2008,06,30,08,34,20.40
2008,06,30,08,35,20.40
2008,06,30,08,36,20.40
2008,06,30,08,37,20.50
2008,06,30,08,38,20.50
2008,06,30,08,39,20.50
2008,06,30,08,40,20.50
2008,06,30,08,41,20.50
2008,06,30,08,42,20.50
2008,06,30,08,43,20.50
2008,06,30,08,44,20.50
2008,06,30,08,45,20.50
2008,06,30,08,46,20.50
2008,06,30,08,47,20.60
2008,06,30,08,48,20.60
2008,06,30,08,49,20.60
2008,06,30,08,50,20.60
2008,06,30,08,51,20.60
2008,06,30,08,52,20.70
2008,06,30,08,53,20.70
2008,06,30,08,54,20.80
2008,06,30,08,55,20.90
2008,06,30,08,56,20.90
2008,06,30,08,57,21.00
2008,06,30,08,58,21.10
2008,06,30,08,59,21.20
2008,06,30,09,00,21.20
2008,06,30,09,01,21.20
2008,06,30,09,02,21.20
2008,06,30,09,03,21.20
2008,06,30,09,04,21.20
2008,06,30,09,05,21.20
2008,06,30,09,06,21.20
2008,06,30,09,07,21.20
2008,06,30,09,08,21.20
2008,06,30,09,09,21.30
2008,06,30,09,10,21.30
2008,06,30,09,11,21.40
2008,06,30,09,12,21.50
2008,06,30,09,13,21.50
2008,06,30,09,14,21.60
2008,06,30,09,15,21.70
2008,06,30,09,16,21.80
2008,06,30,09,17,21.80
2008,06,30,09,18,21.80
2008,06,30,09,19,21.80
2008,06,30,09,20,21.80
2008,06,30,09,21,21.80
2008,06,30,09,22,21.80
2008,06,30,09,23,21.90
2008,06,30,09,24,22.00
2008,06,30,09,25,22.00
2008,06,30,09,26,22.10
2008,06,30,09,27,22.10
2008,06,30,09,28,22.20
2008,06,30,09,29,22.20
2008,06,30,09,30,22.30
2008,06,30,09,31,22.40
2008,06,30,09,32,22.50
2008,06,30,09,33,22.60
2008,06,30,09,34,22.70
2008,06,30,09,35,22.80
2008,06,30,09,36,22.80
2008,06,30,09,37,22.90
2008,06,30,09,38,23.00
2008,06,30,09,39,23.10
2008,06,30,09,40,23.20
2008,06,30,09,41,23.30
2008,06,30,09,42,23.30
2008,06,30,09,43,23.30
2008,06,30,09,44,23.40
2008,06,30,09,45,23.40
2008,06,30,09,46,23.40
2008,06,30,09,47,23.40
2008,06,30,09,48,23.50
2008,06,30,09,49,23.60
2008,06,30,09,50,23.70
2008,06,30,09,51,23.80
2008,06,30,09,52,23.80
2008,06,30,09,53,23.90
2008,06,30,09,54,24.00
2008,06,30,09,55,24.10
2008,06,30,09,56,24.20
2008,06,30,09,57,24.30
2008,06,30,09,58,24.40
2008,06,30,09,59,24.50
2008,06,30,10,00,24.60
2008,06,30,10,01,24.60
2008,06,30,10,02,24.60
2008,06,30,10,03,24.50
2008,06,30,10,04,24.50
2008,06,30,10,05,24.40
2008,06,30,10,06,24.30
2008,06,30,10,07,24.20
2008,06,30,10,08,24.30
2008,06,30,10,09,24.30
2008,06,30,10,10,24.40
2008,06,30,10,11,24.40
2008,06,30,10,12,24.40
2008,06,30,10,13,24.40
2008,06,30,10,14,24.50
2008,06,30,10,15,24.50
2008,06,30,10,16,24.60
2008,06,30,10,17,24.70
2008,06,30,10,18,24.80
2008,06,30,10,19,24.90
2008,06,30,10,20,24.90
2008,06,30,10,21,24.90
2008,06,30,10,22,24.90
2008,06,30,10,23,24.90
2008,06,30,10,24,25.00
2008,06,30,10,25,25.00
2008,06,30,10,26,25.00
2008,06,30,10,27,24.90
2008,06,30,10,28,25.00
2008,06,30,10,29,25.00
2008,06,30,10,30,25.00
2008,06,30,10,31,25.10
2008,06,30,10,32,25.10
2008,06,30,10,33,25.10
2008,06,30,10,34,25.20
2008,06,30,10,35,25.20
2008,06,30,10,36,25.30
2008,06,30,10,37,25.30
2008,06,30,10,38,25.40
2008,06,30,10,39,25.40
2008,06,30,10,40,25.40
2008,06,30,10,41,25.40
2008,06,30,10,42,25.50
2008,06,30,10,43,25.40
2008,06,30,10,44,25.40
2008,06,30,10,45,25.40
2008,06,30,10,46,25.50
2008,06,30,10,47,25.50
2008,06,30,10,48,25.60
2008,06,30,10,49,25.60
2008,06,30,10,50,25.60
2008,06,30,10,51,25.70
2008,06,30,10,52,25.80
2008,06,30,10,53,25.90
2008,06,30,10,54,26.00
2008,06,30,10,55,26.10
2008,06,30,10,56,26.20
2008,06,30,10,57,26.20
2008,06,30,10,58,26.30
2008,06,30,10,59,26.40
2008,06,30,11,00,26.50
2008,06,30,11,01,26.50
2008,06,30,11,02,26.60
2008,06,30,11,03,26.60
2008,06,30,11,04,26.70
2008,06,30,11,05,26.70
2008,06,30,11,06,26.60
2008,06,30,11,07,26.50
2008,06,30,11,08,26.40
2008,06,30,11,09,26.40
2008,06,30,11,10,26.40
2008,06,30,11,11,26.40
2008,06,30,11,12,26.50
2008,06,30,11,13,26.50
2008,06,30,11,14,26.60
2008,06,30,11,15,26.70
2008,06,30,11,16,26.70
2008,06,30,11,17,26.70
2008,06,30,11,18,26.60
2008,06,30,11,19,26.50
2008,06,30,11,20,26.40
2008,06,30,11,21,26.40
2008,06,30,11,22,26.30
2008,06,30,11,23,26.30
2008,06,30,11,24,26.20
2008,06,30,11,25,26.20
2008,06,30,11,26,26.20
2008,06,30,11,27,26.20
2008,06,30,11,28,26.20
2008,06,30,11,29,26.30
2008,06,30,11,30,26.40
2008,06,30,11,31,26.40
2008,06,30,11,32,26.50
2008,06,30,11,33,26.50
2008,06,30,11,34,26.60
2008,06,30,11,35,26.60
2008,06,30,11,36,26.70
2008,06,30,11,37,26.70
2008,06,30,11,38,26.70
2008,06,30,11,39,26.70
2008,06,30,11,40,26.70
2008,06,30,11,41,26.70
2008,06,30,11,42,26.70
2008,06,30,11,43,26.70
2008,06,30,11,44,26.70
2008,06,30,11,45,26.70
2008,06,30,11,46,26.70
2008,06,30,11,47,26.70
2008,06,30,11,48,26.80
2008,06,30,11,49,26.90
2008,06,30,11,50,26.90
2008,06,30,11,51,27.00
2008,06,30,11,52,27.00
2008,06,30,11,53,26.90
2008,06,30,11,54,26.90
2008,06,30,11,55,26.90
2008,06,30,11,56,26.80
2008,06,30,11,57,26.80
2008,06,30,11,58,26.80
2008,06,30,11,59,26.70
2008,06,30,12,00,26.70
2008,06,30,12,01,26.70
2008,06,30,12,02,26.70
2008,06,30,12,03,26.70
2008,06,30,12,04,26.70
2008,06,30,12,05,26.80
2008,06,30,12,06,26.90
2008,06,30,12,07,26.90
2008,06,30,12,08,27.00
2008,06,30,12,09,27.00
2008,06,30,12,10,27.00
2008,06,30,12,11,27.00
2008,06,30,12,12,27.00
2008,06,30,12,13,27.00
2008,06,30,12,14,26.90
2008,06,30,12,15,26.90
2008,06,30,12,16,26.90
2008,06,30,12,17,26.90
2008,06,30,12,18,26.80
2008,06,30,12,19,26.80
2008,06,30,12,20,26.90
2008,06,30,12,21,27.10
2008,06,30,12,22,27.30
2008,06,30,12,23,27.50
2008,06,30,12,24,27.60
2008,06,30,12,25,27.60
2008,06,30,12,26,27.60
2008,06,30,12,27,27.60
2008,06,30,12,28,27.50
2008,06,30,12,29,27.40
2008,06,30,12,30,27.30
2008,06,30,12,31,27.20
2008,06,30,12,32,27.10
2008,06,30,12,33,27.00
2008,06,30,12,34,27.00
2008,06,30,12,35,26.90
2008,06,30,12,36,26.80
2008,06,30,12,37,26.80
2008,06,30,12,38,26.70
2008,06,30,12,39,26.70
2008,06,30,12,40,26.70
2008,06,30,12,41,26.60
2008,06,30,12,42,26.60
2008,06,30,12,43,26.60
2008,06,30,12,44,26.60
2008,06,30,12,45,26.60
2008,06,30,12,46,26.70
2008,06,30,12,47,26.70
2008,06,30,12,48,26.70
2008,06,30,12,49,26.70
2008,06,30,12,50,26.70
2008,06,30,12,51,26.70
2008,06,30,12,52,26.70
2008,06,30,12,53,26.80
2008,06,30,12,54,26.80
2008,06,30,12,55,26.90
2008,06,30,12,56,27.00
2008,06,30,12,57,27.00
2008,06,30,12,58,26.90
2008,06,30,12,59,26.80
2008,06,30,13,00,26.70
2008,06,30,13,01,26.70
2008,06,30,13,02,26.70
2008,06,30,13,03,26.70
2008,06,30,13,04,26.80
2008,06,30,13,05,26.80
2008,06,30,13,06,26.80
2008,06,30,13,07,26.90
2008,06,30,13,08,26.90
2008,06,30,13,09,26.90
2008,06,30,13,10,27.00
2008,06,30,13,11,27.10
2008,06,30,13,12,27.30
2008,06,30,13,13,27.40
2008,06,30,13,14,27.30
2008,06,30,13,15,27.30
2008,06,30,13,16,27.20
2008,06,30,13,17,27.20
2008,06,30,13,18,27.10
2008,06,30,13,19,27.10
2008,06,30,13,20,27.20
2008,06,30,13,21,27.20
2008,06,30,13,22,27.30
2008,06,30,13,23,27.40
2008,06,30,13,24,27.40
2008,06,30,13,25,27.40
2008,06,30,13,26,27.40
2008,06,30,13,27,27.30
2008,06,30,13,28,27.30
2008,06,30,13,29,27.30
2008,06,30,13,30,27.40
2008,06,30,13,31,27.60
2008,06,30,13,32,27.70
2008,06,30,13,33,27.80
2008,06,30,13,34,28.00
2008,06,30,13,35,28.10
2008,06,30,13,36,28.20
2008,06,30,13,37,28.30
2008,06,30,13,38,28.40
2008,06,30,13,39,28.50
2008,06,30,13,40,28.50
2008,06,30,13,41,28.50
2008,06,30,13,42,28.50
2008,06,30,13,43,28.60
2008,06,30,13,44,28.60
2008,06,30,13,45,28.60
2008,06,30,13,46,28.50
2008,06,30,13,47,28.40
2008,06,30,13,48,28.50
2008,06,30,13,49,28.50
2008,06,30,13,50,28.40
2008,06,30,13,51,28.40
2008,06,30,13,52,28.40
2008,06,30,13,53,28.50
2008,06,30,13,54,28.50
2008,06,30,13,55,28.50
2008,06,30,13,56,28.50
2008,06,30,13,57,28.60
2008,06,30,13,58,28.70
2008,06,30,13,59,28.70
2008,06,30,14,00,28.80
2008,06,30,14,01,28.90
2008,06,30,14,02,28.90
2008,06,30,14,03,28.90
2008,06,30,14,04,29.00
2008,06,30,14,05,29.00
2008,06,30,14,06,28.90
2008,06,30,14,07,28.90
2008,06,30,14,08,28.90
2008,06,30,14,09,28.90
2008,06,30,14,10,29.00
2008,06,30,14,11,29.10
2008,06,30,14,12,29.10
2008,06,30,14,13,29.20
2008,06,30,14,14,29.20
2008,06,30,14,15,29.30
2008,06,30,14,16,29.20
2008,06,30,14,17,29.20
2008,06,30,14,18,29.30
2008,06,30,14,19,29.30
2008,06,30,14,20,29.40
2008,06,30,14,21,29.50
2008,06,30,14,22,29.60
2008,06,30,14,23,29.60
2008,06,30,14,24,29.60
2008,06,30,14,25,29.60
2008,06,30,14,26,29.60
2008,06,30,14,27,29.60
2008,06,30,14,28,29.60
2008,06,30,14,29,29.60
2008,06,30,14,30,29.60
2008,06,30,14,31,29.70
2008,06,30,14,32,29.80
2008,06,30,14,33,29.80
2008,06,30,14,34,29.90
2008,06,30,14,35,29.80
2008,06,30,14,36,29.80
2008,06,30,14,37,29.80
2008,06,30,14,38,29.80
2008,06,30,14,39,29.80
2008,06,30,14,40,29.80
2008,06,30,14,41,29.90
2008,06,30,14,42,29.80
2008,06,30,14,43,29.70
2008,06,30,14,44,29.70
2008,06,30,14,45,29.80
2008,06,30,14,46,29.80
2008,06,30,14,47,29.80
2008,06,30,14,48,29.80
2008,06,30,14,49,29.80
2008,06,30,14,50,29.90
2008,06,30,14,51,29.90
2008,06,30,14,52,30.00
2008,06,30,14,53,30.10
2008,06,30,14,54,30.10
2008,06,30,14,55,30.10
2008,06,30,14,56,30.00
2008,06,30,14,57,29.90
2008,06,30,14,58,29.90
2008,06,30,14,59,29.90
2008,06,30,15,00,29.80
2008,06,30,15,01,29.70
2008,06,30,15,02,29.60
2008,06,30,15,03,29.40
2008,06,30,15,04,29.30
2008,06,30,15,05,29.30
2008,06,30,15,06,29.20
2008,06,30,15,07,29.00
2008,06,30,15,08,28.80
2008,06,30,15,09,28.70
2008,06,30,15,10,28.50
2008,06,30,15,11,28.50
2008,06,30,15,12,28.40
2008,06,30,15,13,28.50
2008,06,30,15,14,28.60
2008,06,30,15,15,28.70
2008,06,30,15,16,28.70
2008,06,30,15,17,28.60
2008,06,30,15,18,28.60
2008,06,30,15,19,28.50
2008,06,30,15,20,28.40
2008,06,30,15,21,28.50
2008,06,30,15,22,28.50
2008,06,30,15,23,28.50
2008,06,30,15,24,28.60
2008,06,30,15,25,28.50
2008,06,30,15,26,28.40
2008,06,30,15,27,28.40
2008,06,30,15,28,28.40
2008,06,30,15,29,28.40
2008,06,30,15,30,28.50
2008,06,30,15,31,28.50
2008,06,30,15,32,28.60
2008,06,30,15,33,28.50
2008,06,30,15,34,28.50
2008,06,30,15,35,28.50
2008,06,30,15,36,28.50
2008,06,30,15,37,28.40
2008,06,30,15,38,28.30
2008,06,30,15,39,28.30
2008,06,30,15,40,28.30
2008,06,30,15,41,28.40
2008,06,30,15,42,28.50
2008,06,30,15,43,28.40
2008,06,30,15,44,28.40
2008,06,30,15,45,28.50
2008,06,30,15,46,28.50
2008,06,30,15,47,28.60
2008,06,30,15,48,28.60
2008,06,30,15,49,28.70
2008,06,30,15,50,28.70
2008,06,30,15,51,28.70
2008,06,30,15,52,28.70
2008,06,30,15,53,28.70
2008,06,30,15,54,28.70
2008,06,30,15,55,28.80
2008,06,30,15,56,28.80
2008,06,30,15,57,28.80
2008,06,30,15,58,28.80
2008,06,30,15,59,28.60
2008,06,30,16,00,28.50
2008,06,30,16,01,28.40
2008,06,30,16,02,28.30
2008,06,30,16,03,28.30
2008,06,30,16,04,28.20
2008,06,30,16,05,28.10
2008,06,30,16,06,28.10
2008,06,30,16,07,28.10
2008,06,30,16,08,28.10
2008,06,30,16,09,28.10
2008,06,30,16,10,28.00
2008,06,30,16,11,28.00
2008,06,30,16,12,27.90
2008,06,30,16,13,27.90
2008,06,30,16,14,28.00
2008,06,30,16,15,28.00
2008,06,30,16,16,28.10
2008,06,30,16,17,28.20
2008,06,30,16,18,28.20
2008,06,30,16,19,28.40
2008,06,30,16,20,28.40
2008,06,30,16,21,28.40
2008,06,30,16,22,28.40
2008,06,30,16,23,28.40
2008,06,30,16,24,28.40
2008,06,30,16,25,28.40
2008,06,30,16,26,28.40
2008,06,30,16,27,28.40
2008,06,30,16,28,28.30
2008,06,30,16,29,28.30
2008,06,30,16,30,28.40
2008,06,30,16,31,28.40
2008,06,30,16,32,28.40
2008,06,30,16,33,28.30
2008,06,30,16,34,28.30
2008,06,30,16,35,28.20
2008,06,30,16,36,28.20
2008,06,30,16,37,28.20
2008,06,30,16,38,28.10
2008,06,30,16,39,28.10
2008,06,30,16,40,28.10
2008,06,30,16,41,28.20
2008,06,30,16,42,28.10
2008,06,30,16,43,28.10
2008,06,30,16,44,28.10
2008,06,30,16,45,28.10
2008,06,30,16,46,28.20
2008,06,30,16,47,28.20
2008,06,30,16,48,28.20
2008,06,30,16,49,28.30
2008,06,30,16,50,28.30
2008,06,30,16,51,28.30
2008,06,30,16,52,28.20
2008,06,30,16,53,28.20
2008,06,30,16,54,28.20
2008,06,30,16,55,28.10
2008,06,30,16,56,28.10
2008,06,30,16,57,28.00
2008,06,30,16,58,27.90
2008,06,30,16,59,27.90
2008,06,30,17,00,28.00
2008,06,30,17,01,28.00
2008,06,30,17,02,28.00
2008,06,30,17,03,28.00
2008,06,30,17,04,28.10
2008,06,30,17,05,28.00
2008,06,30,17,06,28.00
2008,06,30,17,07,27.90
2008,06,30,17,08,27.90
2008,06,30,17,09,28.00
2008,06,30,17,10,28.00
2008,06,30,17,11,28.00
2008,06,30,17,12,28.00
2008,06,30,17,13,28.00
2008,06,30,17,14,28.00
2008,06,30,17,15,28.00
2008,06,30,17,16,27.90
2008,06,30,17,17,27.80
2008,06,30,17,18,27.80
2008,06,30,17,19,27.70